Time,TemperatureF,DewpointF,PressureIn,WindDirection,WindDirectionDegrees,WindSpeedMPH,WindSpeedGustMPH,Humidity,HourlyPrecipIn,Conditions,Clouds,dailyrainin,SoftwareType,DateUTC
2013-01-16 00:02:00,22.0,6.0,-100.00,South,190,9.0,11.0,50,-99.99,,,-99.99,,2013-01-16 06:02:00,
2013-01-16 00:12:00,22.0,6.0,-100.00,SSW,195,9.0,11.0,50,-99.99,,,-99.99,,2013-01-16 06:12:00,
2013-01-16 00:22:00,22.0,6.0,-100.00,SSW,195,10.0,12.0,50,-99.99,,,-99.99,,2013-01-16 06:22:00,
2013-01-16 00:32:00,22.0,6.0,-100.00,South,190,10.0,11.0,50,-99.99,,,-99.99,,2013-01-16 06:32:00,
2013-01-16 00:42:00,22.0,6.0,-100.00,South,190,10.0,11.0,50,-99.99,,,-99.99,,2013-01-16 06:42:00,
2013-01-16 00:52:00,22.0,6.0,-100.00,SSW,195,9.0,12.0,50,-99.99,,,-99.99,,2013-01-16 06:52:00,
2013-01-16 01:02:00,22.0,6.0,-100.00,SSW,195,9.0,12.0,50,-99.99,,,-99.99,,2013-01-16 07:02:00,
2013-01-16 01:12:00,23.0,7.0,-100.00,South,190,10.0,12.0,50,-99.99,,,-99.99,,2013-01-16 07:12:00,
2013-01-16 01:22:00,23.0,6.0,-100.00,SSW,205,9.0,11.0,49,-99.99,,,-99.99,,2013-01-16 07:22:00,
2013-01-16 01:32:00,23.0,7.0,-100.00,SSW,195,7.0,9.0,50,-99.99,,,-99.99,,2013-01-16 07:32:00,
2013-01-16 01:42:00,23.0,7.0,-100.00,SSW,195,7.0,9.0,50,-99.99,,,-99.99,,2013-01-16 07:42:00,
2013-01-16 01:52:00,22.0,7.0,-100.00,SSW,200,9.0,11.0,51,-99.99,,,-99.99,,2013-01-16 07:52:00,
2013-01-16 02:02:00,22.0,7.0,-100.00,SSW,200,9.0,11.0,51,-99.99,,,-99.99,,2013-01-16 08:02:00,
2013-01-16 02:12:00,22.0,7.0,-100.00,SSW,200,9.0,11.0,51,-99.99,,,-99.99,,2013-01-16 08:12:00,
2013-01-16 02:22:00,22.0,7.0,-100.00,SSW,200,10.0,13.0,52,-99.99,,,-99.99,,2013-01-16 08:22:00,
2013-01-16 02:32:00,22.0,7.0,-100.00,SSW,195,12.0,13.0,53,-99.99,,,-99.99,,2013-01-16 08:32:00,
2013-01-16 02:42:00,22.0,7.0,-100.00,SSW,195,12.0,13.0,53,-99.99,,,-99.99,,2013-01-16 08:42:00,
2013-01-16 02:52:00,22.0,8.0,-100.00,SSW,195,12.0,14.0,54,-99.99,,,-99.99,,2013-01-16 08:52:00,
2013-01-16 03:02:00,22.0,8.0,-100.00,SSW,195,12.0,14.0,54,-99.99,,,-99.99,,2013-01-16 09:02:00,
2013-01-16 03:11:00,22.0,8.0,-100.00,SSW,195,11.0,13.0,54,-99.99,,,-99.99,,2013-01-16 09:11:00,
2013-01-16 03:22:00,23.0,8.0,-100.00,South,190,11.0,14.0,54,-99.99,,,-99.99,,2013-01-16 09:22:00,
2013-01-16 03:32:00,24.0,9.0,-100.00,SSW,205,10.0,14.0,54,-99.99,,,-99.99,,2013-01-16 09:32:00,
2013-01-16 03:42:00,24.0,9.0,-100.00,SSW,205,10.0,14.0,54,-99.99,,,-99.99,,2013-01-16 09:42:00,
2013-01-16 03:52:00,24.0,10.0,-100.00,SSW,195,15.0,18.0,54,-99.99,,,-99.99,,2013-01-16 09:52:00,
2013-01-16 04:02:00,24.0,10.0,-100.00,SSW,195,15.0,18.0,54,-99.99,,,-99.99,,2013-01-16 10:02:00,
2013-01-16 04:12:00,24.0,9.0,-100.00,SSW,195,12.0,17.0,54,-99.99,,,-99.99,,2013-01-16 10:12:00,
2013-01-16 04:22:00,24.0,9.0,-100.00,SSW,200,11.0,14.0,54,-99.99,,,-99.99,,2013-01-16 10:22:00,
2013-01-16 04:32:00,24.0,10.0,-100.00,SSW,210,9.0,13.0,55,-99.99,,,-99.99,,2013-01-16 10:32:00,
2013-01-16 04:42:00,24.0,10.0,-100.00,SSW,210,9.0,13.0,55,-99.99,,,-99.99,,2013-01-16 10:42:00,
2013-01-16 04:52:00,24.0,10.0,-100.00,SSW,195,10.0,12.0,55,-99.99,,,-99.99,,2013-01-16 10:52:00,
2013-01-16 05:02:00,24.0,10.0,-100.00,SSW,195,10.0,12.0,55,-99.99,,,-99.99,,2013-01-16 11:02:00,
2013-01-16 05:12:00,24.0,10.0,-100.00,SSW,195,14.0,17.0,55,-99.99,,,-99.99,,2013-01-16 11:12:00,
2013-01-16 05:22:00,24.0,10.0,-100.00,SSW,210,11.0,12.0,56,-99.99,,,-99.99,,2013-01-16 11:22:00,
2013-01-16 05:32:00,25.0,11.0,-100.00,SSW,210,7.0,11.0,56,-99.99,,,-99.99,,2013-01-16 11:32:00,
2013-01-16 05:42:00,25.0,11.0,-100.00,SSW,210,7.0,11.0,56,-99.99,,,-99.99,,2013-01-16 11:42:00,
2013-01-16 05:52:00,26.0,11.0,-100.00,SW,220,10.0,14.0,55,-99.99,,,-99.99,,2013-01-16 11:52:00,
2013-01-16 06:03:00,26.0,11.0,-100.00,SW,220,10.0,14.0,55,-99.99,,,-99.99,,2013-01-16 12:03:00,
2013-01-16 06:12:00,26.0,11.0,-100.00,SSW,210,11.0,12.0,55,-99.99,,,-99.99,,2013-01-16 12:12:00,
2013-01-16 06:22:00,26.0,11.0,-100.00,SW,230,11.0,12.0,54,-99.99,,,-99.99,,2013-01-16 12:22:00,
2013-01-16 06:33:00,27.0,12.0,-100.00,SW,220,12.0,17.0,53,-99.99,,,-99.99,,2013-01-16 12:33:00,
2013-01-16 06:43:00,27.0,12.0,-100.00,SW,220,12.0,17.0,53,-99.99,,,-99.99,,2013-01-16 12:43:00,
2013-01-16 06:52:00,28.0,12.0,-100.00,SW,230,11.0,13.0,52,-99.99,,,-99.99,,2013-01-16 12:52:00,
2013-01-16 07:03:00,28.0,12.0,-100.00,SW,230,11.0,13.0,52,-99.99,,,-99.99,,2013-01-16 13:03:00,
2013-01-16 07:12:00,28.0,12.0,-100.00,WSW,245,12.0,16.0,51,-99.99,,,-99.99,,2013-01-16 13:12:00,
2013-01-16 07:22:00,27.0,11.0,-100.00,SW,235,13.0,16.0,51,-99.99,,,-99.99,,2013-01-16 13:22:00,
2013-01-16 07:33:00,27.0,11.0,-100.00,SW,235,13.0,16.0,51,-99.99,,,-99.99,,2013-01-16 13:33:00,
2013-01-16 07:42:00,27.0,11.0,-100.00,SW,235,13.0,16.0,51,-99.99,,,-99.99,,2013-01-16 13:42:00,
2013-01-16 07:52:00,27.0,12.0,-100.00,WSW,240,12.0,14.0,52,-99.99,,,-99.99,,2013-01-16 13:52:00,
2013-01-16 08:03:00,27.0,12.0,-100.00,WSW,240,12.0,14.0,52,-99.99,,,-99.99,,2013-01-16 14:03:00,
2013-01-16 08:12:00,27.0,12.0,-100.00,SW,235,11.0,14.0,53,-99.99,,,-99.99,,2013-01-16 14:12:00,
2013-01-16 08:23:00,27.0,12.0,-100.00,WSW,250,10.0,15.0,53,-99.99,,,-99.99,,2013-01-16 14:23:00,
2013-01-16 08:33:00,28.0,13.0,-100.00,WSW,255,10.0,12.0,53,-99.99,,,-99.99,,2013-01-16 14:33:00,
2013-01-16 08:42:00,28.0,13.0,-100.00,WSW,255,10.0,12.0,53,-99.99,,,-99.99,,2013-01-16 14:42:00,
2013-01-16 08:53:00,28.0,13.0,-100.00,West,280,10.0,15.0,53,-99.99,,,-99.99,,2013-01-16 14:53:00,
2013-01-16 09:03:00,28.0,13.0,-100.00,West,280,10.0,15.0,53,-99.99,,,-99.99,,2013-01-16 15:03:00,
2013-01-16 09:12:00,28.0,13.0,-100.00,West,280,10.0,15.0,53,-99.99,,,-99.99,,2013-01-16 15:12:00,
2013-01-16 09:22:00,29.0,14.0,-100.00,West,265,13.0,15.0,54,-99.99,,,-99.99,,2013-01-16 15:22:00,
2013-01-16 09:33:00,30.0,16.0,-100.00,WSW,255,8.0,14.0,55,-99.99,,,-99.99,,2013-01-16 15:33:00,
2013-01-16 09:43:00,30.0,16.0,-100.00,WSW,255,8.0,14.0,55,-99.99,,,-99.99,,2013-01-16 15:43:00,
2013-01-16 09:53:00,30.0,16.0,-100.00,WSW,250,10.0,12.0,55,-99.99,,,-99.99,,2013-01-16 15:53:00,
2013-01-16 10:03:00,30.0,16.0,-100.00,WSW,250,10.0,12.0,55,-99.99,,,-99.99,,2013-01-16 16:03:00,
2013-01-16 10:12:00,30.0,16.0,-100.00,WSW,250,10.0,12.0,55,-99.99,,,-99.99,,2013-01-16 16:12:00,
2013-01-16 10:22:00,30.0,16.0,-100.00,WSW,250,10.0,12.0,55,-99.99,,,-99.99,,2013-01-16 16:22:00,
2013-01-16 10:33:00,33.0,18.0,-100.00,West,260,11.0,13.0,54,-99.99,,,-99.99,,2013-01-16 16:33:00,
2013-01-16 10:42:00,33.0,18.0,-100.00,West,260,11.0,13.0,54,-99.99,,,-99.99,,2013-01-16 16:42:00,
2013-01-16 10:53:00,35.0,20.0,-100.00,WNW,285,10.0,12.0,53,-99.99,,,-99.99,,2013-01-16 16:53:00,
2013-01-16 11:03:00,35.0,20.0,-100.00,WNW,285,10.0,12.0,53,-99.99,,,-99.99,,2013-01-16 17:03:00,
2013-01-16 11:12:00,37.0,21.0,-100.00,WNW,290,11.0,17.0,53,-99.99,,,-99.99,,2013-01-16 17:12:00,
2013-01-16 11:22:00,36.0,21.0,-100.00,West,280,14.0,16.0,54,-99.99,,,-99.99,,2013-01-16 17:22:00,
2013-01-16 11:33:00,36.0,21.0,-100.00,West,260,12.0,16.0,55,-99.99,,,-99.99,,2013-01-16 17:33:00,
2013-01-16 11:43:00,36.0,21.0,-100.00,West,260,12.0,16.0,55,-99.99,,,-99.99,,2013-01-16 17:43:00,
2013-01-16 11:53:00,38.0,23.0,-100.00,WSW,250,11.0,12.0,54,-99.99,,,-99.99,,2013-01-16 17:53:00,
2013-01-16 12:03:00,38.0,23.0,-100.00,WSW,250,11.0,12.0,54,-99.99,,,-99.99,,2013-01-16 18:03:00,
2013-01-16 12:13:00,38.0,23.0,-100.00,West,275,11.0,14.0,54,-99.99,,,-99.99,,2013-01-16 18:13:00,
2013-01-16 12:23:00,40.0,25.0,-100.00,West,275,8.0,11.0,54,-99.99,,,-99.99,,2013-01-16 18:23:00,
2013-01-16 12:33:00,41.0,25.0,-100.00,West,270,11.0,14.0,53,-99.99,,,-99.99,,2013-01-16 18:33:00,
2013-01-16 12:42:00,41.0,25.0,-100.00,West,270,11.0,14.0,53,-99.99,,,-99.99,,2013-01-16 18:42:00,
2013-01-16 12:52:00,42.0,26.0,-100.00,West,280,12.0,16.0,52,-99.99,,,-99.99,,2013-01-16 18:52:00,
2013-01-16 13:03:00,42.0,26.0,-100.00,West,280,12.0,16.0,52,-99.99,,,-99.99,,2013-01-16 19:03:00,
2013-01-16 13:12:00,43.0,26.0,-100.00,West,270,9.0,12.0,51,-99.99,,,-99.99,,2013-01-16 19:12:00,
2013-01-16 13:23:00,43.0,26.0,-100.00,WNW,285,13.0,15.0,50,-99.99,,,-99.99,,2013-01-16 19:23:00,
2013-01-16 13:33:00,45.0,27.0,-100.00,WSW,255,9.0,12.0,49,-99.99,,,-99.99,,2013-01-16 19:33:00,
2013-01-16 13:42:00,45.0,27.0,-100.00,WSW,255,9.0,12.0,49,-99.99,,,-99.99,,2013-01-16 19:42:00,
2013-01-16 13:52:00,45.0,27.0,-100.00,WSW,255,9.0,12.0,49,-99.99,,,-99.99,,2013-01-16 19:52:00,
2013-01-16 14:03:00,45.0,27.0,-100.00,WSW,255,9.0,12.0,49,-99.99,,,-99.99,,2013-01-16 20:03:00,
2013-01-16 14:12:00,46.0,27.0,-100.00,West,280,13.0,16.0,48,-99.99,,,-99.99,,2013-01-16 20:12:00,
2013-01-16 14:23:00,46.0,27.0,-100.00,WNW,290,14.0,16.0,47,-99.99,,,-99.99,,2013-01-16 20:23:00,
2013-01-16 14:33:00,47.0,27.0,-100.00,WSW,255,7.0,11.0,46,-99.99,,,-99.99,,2013-01-16 20:33:00,
2013-01-16 14:42:00,47.0,27.0,-100.00,WSW,255,7.0,11.0,46,-99.99,,,-99.99,,2013-01-16 20:42:00,
2013-01-16 14:53:00,47.0,27.0,-100.00,West,275,9.0,13.0,45,-99.99,,,-99.99,,2013-01-16 20:53:00,
2013-01-16 15:03:00,47.0,27.0,-100.00,West,275,9.0,13.0,45,-99.99,,,-99.99,,2013-01-16 21:03:00,
2013-01-16 15:12:00,47.0,26.0,-100.00,West,270,11.0,12.0,44,-99.99,,,-99.99,,2013-01-16 21:12:00,
2013-01-16 15:22:00,48.0,27.0,-100.00,West,270,7.0,11.0,44,-99.99,,,-99.99,,2013-01-16 21:22:00,
2013-01-16 15:33:00,48.0,27.0,-100.00,West,270,7.0,10.0,44,-99.99,,,-99.99,,2013-01-16 21:33:00,
2013-01-16 15:43:00,48.0,27.0,-100.00,West,270,7.0,10.0,44,-99.99,,,-99.99,,2013-01-16 21:43:00,
2013-01-16 15:52:00,48.0,27.0,-100.00,West,260,12.0,15.0,43,-99.99,,,-99.99,,2013-01-16 21:52:00,
2013-01-16 16:02:00,48.0,27.0,-100.00,West,260,12.0,15.0,43,-99.99,,,-99.99,,2013-01-16 22:02:00,
2013-01-16 16:12:00,49.0,27.0,-100.00,WSW,245,6.0,9.0,43,-99.99,,,-99.99,,2013-01-16 22:12:00,
2013-01-16 16:22:00,49.0,27.0,-100.00,WSW,245,6.0,9.0,43,-99.99,,,-99.99,,2013-01-16 22:22:00,
2013-01-16 16:33:00,48.0,27.0,-100.00,WNW,285,8.0,10.0,44,-99.99,,,-99.99,,2013-01-16 22:33:00,
2013-01-16 16:43:00,48.0,27.0,-100.00,WNW,285,8.0,10.0,44,-99.99,,,-99.99,,2013-01-16 22:43:00,
2013-01-16 16:52:00,48.0,27.0,-100.00,WNW,295,7.0,8.0,45,-99.99,,,-99.99,,2013-01-16 22:52:00,
2013-01-16 17:03:00,48.0,27.0,-100.00,WNW,295,7.0,8.0,45,-99.99,,,-99.99,,2013-01-16 23:03:00,
2013-01-16 17:12:00,47.0,27.0,-100.00,NW,310,8.0,10.0,46,-99.99,,,-99.99,,2013-01-16 23:12:00,
2013-01-16 17:22:00,46.0,26.0,-100.00,WNW,290,6.0,7.0,47,-99.99,,,-99.99,,2013-01-16 23:22:00,
2013-01-16 17:32:00,45.0,27.0,-100.00,NW,310,8.0,9.0,50,-99.99,,,-99.99,,2013-01-16 23:32:00,
2013-01-16 17:42:00,45.0,27.0,-100.00,NW,310,8.0,9.0,50,-99.99,,,-99.99,,2013-01-16 23:42:00,
2013-01-16 17:52:00,44.0,27.0,-100.00,WNW,285,7.0,9.0,51,-99.99,,,-99.99,,2013-01-16 23:52:00,
2013-01-16 18:02:00,44.0,27.0,-100.00,WNW,285,7.0,9.0,51,-99.99,,,-99.99,,2013-01-17 00:02:00,
2013-01-16 18:12:00,43.0,27.0,-100.00,WNW,300,5.0,6.0,52,-99.99,,,-99.99,,2013-01-17 00:12:00,
2013-01-16 18:22:00,43.0,27.0,-100.00,WNW,290,6.0,6.0,53,-99.99,,,-99.99,,2013-01-17 00:22:00,
2013-01-16 18:32:00,42.0,27.0,-100.00,WNW,295,6.0,7.0,55,-99.99,,,-99.99,,2013-01-17 00:32:00,
2013-01-16 18:42:00,42.0,27.0,-100.00,WNW,295,6.0,7.0,55,-99.99,,,-99.99,,2013-01-17 00:42:00,
2013-01-16 18:52:00,41.0,27.0,-100.00,NW,305,6.0,7.0,59,-99.99,,,-99.99,,2013-01-17 00:52:00,
2013-01-16 19:02:00,41.0,27.0,-100.00,NW,305,6.0,7.0,59,-99.99,,,-99.99,,2013-01-17 01:02:00,
2013-01-16 19:12:00,41.0,27.0,-100.00,NW,305,6.0,7.0,59,-99.99,,,-99.99,,2013-01-17 01:12:00,
2013-01-16 19:22:00,41.0,28.0,-100.00,NW,310,12.0,15.0,61,-99.99,,,-99.99,,2013-01-17 01:22:00,
2013-01-16 19:32:00,41.0,28.0,-100.00,NW,305,12.0,16.0,61,-99.99,,,-99.99,,2013-01-17 01:32:00,
2013-01-16 19:42:00,41.0,28.0,-100.00,NW,305,12.0,16.0,61,-99.99,,,-99.99,,2013-01-17 01:42:00,
2013-01-16 19:52:00,41.0,28.0,-100.00,NW,320,14.0,17.0,61,-99.99,,,-99.99,,2013-01-17 01:52:00,
2013-01-16 20:02:00,41.0,28.0,-100.00,NW,320,14.0,17.0,61,-99.99,,,-99.99,,2013-01-17 02:02:00,
2013-01-16 20:12:00,40.0,28.0,-100.00,NW,310,14.0,16.0,62,-99.99,,,-99.99,,2013-01-17 02:12:00,
2013-01-16 20:22:00,40.0,28.0,-100.00,NW,320,12.0,14.0,63,-99.99,,,-99.99,,2013-01-17 02:22:00,
2013-01-16 20:32:00,39.0,28.0,-100.00,NW,315,16.0,19.0,65,-99.99,,,-99.99,,2013-01-17 02:32:00,
2013-01-16 20:42:00,39.0,28.0,-100.00,NW,315,16.0,19.0,65,-99.99,,,-99.99,,2013-01-17 02:42:00,
2013-01-16 20:52:00,39.0,28.0,-100.00,NW,315,16.0,19.0,65,-99.99,,,-99.99,,2013-01-17 02:52:00,
2013-01-16 21:02:00,39.0,28.0,-100.00,NW,320,14.0,16.0,67,-99.99,,,-99.99,,2013-01-17 03:02:00,
2013-01-16 21:12:00,38.0,29.0,-100.00,NW,325,17.0,20.0,69,-99.99,,,-99.99,,2013-01-17 03:12:00,
2013-01-16 21:22:00,37.0,29.0,-100.00,NNW,330,17.0,21.0,72,-99.99,,,-99.99,,2013-01-17 03:22:00,
2013-01-16 21:32:00,36.0,29.0,-100.00,North,350,15.0,18.0,77,-99.99,,,-99.99,,2013-01-17 03:32:00,
2013-01-16 21:42:00,36.0,29.0,-100.00,North,350,15.0,18.0,77,-99.99,,,-99.99,,2013-01-17 03:42:00,
2013-01-16 21:52:00,34.0,29.0,-100.00,North,355,12.0,14.0,81,-99.99,,,-99.99,,2013-01-17 03:52:00,
2013-01-16 22:02:00,34.0,29.0,-100.00,North,355,12.0,14.0,81,-99.99,,,-99.99,,2013-01-17 04:02:00,
2013-01-16 22:12:00,34.0,29.0,-100.00,NNW,335,10.0,11.0,81,-99.99,,,-99.99,,2013-01-17 04:12:00,
2013-01-16 22:22:00,34.0,29.0,-100.00,NW,325,9.0,12.0,82,-99.99,,,-99.99,,2013-01-17 04:22:00,
2013-01-16 22:32:00,33.0,28.0,-100.00,NNW,335,16.0,20.0,82,-99.99,,,-99.99,,2013-01-17 04:32:00,
2013-01-16 22:42:00,33.0,28.0,-100.00,NNW,335,16.0,20.0,82,-99.99,,,-99.99,,2013-01-17 04:42:00,
2013-01-16 22:52:00,33.0,27.0,-100.00,NW,325,14.0,16.0,80,-99.99,,,-99.99,,2013-01-17 04:52:00,
2013-01-16 23:04:00,33.0,27.0,-100.00,NW,325,14.0,16.0,80,-99.99,,,-99.99,,2013-01-17 05:04:00,
2013-01-16 23:12:00,33.0,27.0,-100.00,NNW,345,15.0,19.0,79,-99.99,,,-99.99,,2013-01-17 05:12:00,
2013-01-16 23:22:00,33.0,27.0,-100.00,NW,320,14.0,16.0,80,-99.99,,,-99.99,,2013-01-17 05:22:00,
2013-01-16 23:33:00,33.0,27.0,-100.00,NW,320,14.0,16.0,80,-99.99,,,-99.99,,2013-01-17 05:33:00,
2013-01-16 23:42:00,32.0,27.0,-100.00,NNW,335,17.0,22.0,80,-99.99,,,-99.99,,2013-01-17 05:42:00,
2013-01-16 23:52:00,32.0,26.0,-100.00,NNW,335,13.0,16.0,80,-99.99,,,-99.99,,2013-01-17 05:52:00,